Location: Buch am Rannenberg
(48.6989°N, 10.6399°E)
Time: 07:42:44
(UTC+00:00)

Shenzhou-11 Module - Pass Details

Date: 07 June 2020
Orbit: 263 x 284 km, 42.8° (Epoch: 12 July)

Event Time Altitude Azimuth Distance (km) Brightness Sun altitude
Exits shadow 02:28:28 - 236° (WSW) 1,103 3.7 -6.7°
Reaches altitude 10° 02:28:36 10° 234° (SW) 1,058 3.6 -6.6°
Maximum altitude 02:30:19 18° 187° (S) 749 3.1 -6.4°
Drops below altitude 10° 02:32:03 10° 140° (SE) 1,062 4.3 -6.3°
Sets 02:34:16 0° 120° (ESE) 1,874 5.8 -6.0°
